Voltar ao catálogo

STARLINK-30576

AtivoComunicaçõesVLEO
NORAD 58065·PAYLOAD·🇺🇸 United States

Lançado Oct 13, 2023 de Cape Canaveral Space Force Station

Loading…

Próximas Passagens (próximas 24 horas)

TLE

AtualizadoSource: CelesTrak SupGP

Época: Sep 14, 2026, 22:13 UTC

1 58065C 23158Q   26257.92618056  .00003720  00000+0  13466-3 0  2573
2 58065  43.0009  38.3358 0001713 269.1051   9.4453 15.27591145    14

Acompanhe STARLINK-30576 em tempo real com AllMySat

Download on the App Store